Weather in Savino

Russia / Yaroslavl Oblast     57°37′38″N   38°29′37″E
temp.,
°C
wind,
m/s
gust,
m/s
humid.,
%
clouds,
%
prec.,
mm/h
press.,
hPa
HPBL,
m
4 march, thu
thu400:00−1wsw61395100 0.3 1001806
03:000wsw51298100 1.4 997697
06:00+1w71395100 1.1 9941008
09:00−3nw6128687 1.7 996888
12:00−2nw598590 0.1 9971038
15:00−2nnw468395 0.2 998926
18:00−6nnw239095 0.1 100036
21:00−9nw239154 0.1 100121
5 march, fri
fri500:00−11wnw22920 0.0 100221
03:00−11w22938 0.0 100321
06:00−8w249688 0.6 1004175
09:00−7nw369492 1.1 1005337
12:00−5nw4689100 0.3 1006718
15:00−5wnw4689100 0.6 1009753
18:00−8nnw3892100 0.4 1010355
21:00−14nnw239262 0.4 101328
6 march, sat
sat600:00−16nw22910 0.0 101520
03:00−16w23910 0.0 101620
06:00−17w239462 0.0 101650
09:00−14w369349 0.0 1016215
12:00−9w349090 0.0 1016430
15:00−8w468795 0.1 1014754
18:00−10sw339197 0.1 101351
21:00−12ssw499163 0.1 1011162
7 march, sun
sun700:00−8ssw61486100 0.0 1006586
03:00−7ssw81593100 0.6 1001932
06:00−5sw81593100 1.1 9951041
09:00−4sw71494100 2.4 9911087
12:00−2wsw71196100 2.6 990890
15:00−6w61078100 3.4 9911385
18:00−10w4107967 0.1 993253
21:00−10s369475 0.3 992207
8 march, mon
mon800:00−8sw3995100 0.6 991432
03:00−10nne51192100 1.2 991461
06:00−16nw4129067 0.0 993331
09:00−11nw6129381 0.4 997799
12:00−10nnw71189100 0.3 1000829
15:00−9nnw61088100 0.5 1004908
18:00−11nnw41092100 0.1 1007667
21:00−13nnw4109393 0.3 1010478